Torna al catalogo

STARLINK-11600

AttivoComunicazioniVLEO
NORAD 63114·PAYLOAD·🇺🇸 United States

Lanciato Feb 27, 2025 da Cape Canaveral Space Force Station

Loading…

Prossimi Passaggi (prossime 24 ore)

TLE

AggiornatoSource: CelesTrak SupGP

Epoca: Sep 15, 2026, 03:36 UTC

1 63114C 25039L   26258.15048611  .00041918  00000+0  32555-3 0  2586
2 63114  43.0005 174.6747 0001461 271.4126 121.3490 15.70819701    10

Traccia STARLINK-11600 in tempo reale con AllMySat

Download on the App Store